Regional Weather Roundup
Issued by NWS

Home | Current Version | Previous Version | Text Only | Print | Product List | Glossary Off
Versions: 1 2 3 4 5 6 7 8 9 10 11 12 13 14 15 16 17 18 19 20 21 22 23 24 25 26 27 28 29 30 31 32 33 34 35 36 37 38 39 40 41 42 43 44 45 46 47 48 49 50

000
ASUS43 KLOT 291809
RWRIL

ILLINOIS REGIONAL WEATHER ROUNDUP
NATIONAL WEATHER SERVICE CHICAGO/ROMEOVILLE IL
100 PM CDT MON MAY 29 2017

NOTE: "FAIR" INDICATES FEW OR NO CLOUDS BELOW 12,000 FEET WITH NO
SIGNIFICANT WEATHER AND/OR OBSTRUCTIONS TO VISIBILITY.

* THESE STATIONS ARE NOT UNDER NWS QUALITY CONTROL. THEY ALSO MAY NOT
  REPORT WEATHER SUCH AS PRECIPITATION OR FOG.

ILZ001-002-007-009-015-016-024-291900-
NORTHWEST ILLINOIS

CITY           SKY/WX    TMP DP  RH WIND       PRES   REMARKS
MOLINE         SUNNY     74  45  35 W20       29.89S
6HR MIN TEMP:  60; 6HR MAX TEMP:  74; 6HR PCP: TRACE;

STERLING*      SUNNY     72  49  44 W22G31    29.87S
SAVANNA*       MOSUNNY   71  47  43 W13G18    29.87S
$$

ILZ003-004-008-010-011-017-018-291900-
NORTH CENTRAL ILLINOIS

CITY           SKY/WX    TMP DP  RH WIND       PRES   REMARKS
ROCKFORD       MOSUNNY   72  48  42 W21G30    29.85S
6HR MIN TEMP:  59; 6HR MAX TEMP:  72;

FREEPORT*      MOSUNNY   68  46  45 W20G29    29.87S
ROCHELLE*      SUNNY     71  48  44 W21G30    29.87S
DE KALB*       SUNNY     72  46  39 W25       29.86S
PERU*          SUNNY     73  46  37 W16G23    29.88S
$$

ILZ005-006-012>014-019>023-291900-
NORTHEAST ILLINOIS

CITY           SKY/WX    TMP DP  RH WIND       PRES   REMARKS
CHICAGO-OHARE  MOSUNNY   76  42  29 W25G35    29.82S
6HR MIN TEMP:  63; 6HR MAX TEMP:  76;

CHICAGO-MIDWAY MOSUNNY   76  46  34 W24G38    29.83S
6HR MIN TEMP:  64; 6HR MAX TEMP:  77;

AURORA         SUNNY     76  44  32 W24G37    29.85S
6HR MIN TEMP:  62; 6HR MAX TEMP:  76;

LANSING*       MOSUNNY   76  53  45 SW14G26   29.85F
JOLIET*        MOSUNNY   76  48  36 W13G23    29.86S
WAUKEGAN       SUNNY     73  43  33 W14G25    29.79R
6HR MIN TEMP:  62; 6HR MAX TEMP:  74;

DUPAGE AIRPORT SUNNY     74  44  34 W22G31    29.84R
6HR MIN TEMP:  62; 6HR MAX TEMP:  75;

KANKAKEE*      PTSUNNY   80  47  31 W14G25    29.87S
WHEELING       SUNNY     75  44  33 W16G30    29.82R
6HR MIN TEMP:  63; 6HR MAX TEMP:  75;

MORRIS*        MOSUNNY   75  47  36 W18G25    29.85S
ROMEOVILLE*    SUNNY     76  52  43 W20G31    29.85S
NORTHERLY ISL    N/A     75  41  29 SW7         N/A
$$

LMZ740>746-291900-
SOUTHERN LAKE MICHIGAN

STATION/POSITION SKY/WX   TEMP    WIND        PRES    VSBY  WAVE
                          AIR SEA DIR/SP/G                  HT/PER
                          (F)     (DEG/KT/KT) (MB)    (MI)  (FT/S)
SOUTHERN BUOY              54 47  220/  8/ 10 1009.2R         1
WILMETTE HARBOR            67 55  240/ 16/ 21   N/A           3/ 3
HARRISON CRIB              73     240/ 20/ 25   N/A
BURNHAM HARBOR             74     250/ 16/ 19   N/A
CALUMET HARBOR             75     210/ 14/ 25 1009.5F
BURNS HARBOR               70     260/ 14/ 24 1010.8S
MICHIGAN CITY              65     220/ 10/ 11   N/A
MICHIGAN CITY 6N           62 56  250/  8/ 10   N/A           1
ST. JOSEPH                 62 59  220/  8/ 12 1010.5          1/ 3
$$

ILZ025>027-034>036-040-047-049-050-058-095>099-291900-
WEST-CENTRAL ILLINOIS

CITY           SKY/WX    TMP DP  RH WIND       PRES   REMARKS
QUINCY         PTSUNNY   75  53  46 NW12      29.95R
GALESBURG*     SUNNY     75  46  35 W13G20    29.91S
MACOMB*        MOSUNNY   74  46  35 W14       29.95S
JACKSONVILLE*  MOSUNNY   79  53  41 W17       29.93S
PITTSFIELD*    CLOUDY    76  54  46 W8        29.95S
$$

ILZ028>032-037-038-041>044-048-051>054-059>061-291900-
CENTRAL ILLINOIS

CITY           SKY/WX    TMP DP  RH WIND       PRES   REMARKS
PONTIAC        PTSUNNY   78  47  34 W20G26    29.89S
BLOOMINGTON    PTSUNNY   79  47  32 W10G28    29.90F
DECATUR        SUNNY     81  48  31 W14G20    29.91F HX  80
PEORIA         PTSUNNY   75  48  38 NW10G21   29.91S
6HR MIN TEMP:  59; 6HR MAX TEMP:  76;

LACON*         SUNNY     75  45  34 W14G21    29.88F
LINCOLN*       MOSUNNY   81  48  31 W6G16     29.91F HX  80
SPRINGFIELD    SUNNY     83  50  31 W16       29.92F HX  81
6HR MIN TEMP:  63; 6HR MAX TEMP:  83;

TAYLORVILLE    SUNNY     82  47  29 W14       29.92F HX  81
6HR MIN TEMP:  63; 6HR MAX TEMP:  83;

$$

ILZ033-039-045-046-055>057-062-063-291900-
EAST-CENTRAL ILLINOIS

CITY           SKY/WX    TMP DP  RH WIND       PRES   REMARKS
CHAMPAIGN      MOSUNNY   84  45  25 W15G29    29.90F HX  82
RANTOUL*       SUNNY     83  44  26 W14G26    29.89F HX  81
MATTOON        SUNNY     80  50  34 W7        29.91F HX  80
PARIS*         SUNNY     81  52  36 SW12G22   29.91F HX  80
$$

ILZ079-100>102-291900-
SOUTHWEST ILLINOIS

CITY           SKY/WX    TMP DP  RH WIND       PRES   REMARKS
ALTON          SUNNY     79  50  36 SW14      29.94F
BELLEVILLE     MOSUNNY   82  50  33 SW12      29.95F HX  80
CAHOKIA*       SUNNY     84  46  26 SW6       29.94F HX  82
SPARTA*        SUNNY     81  47  30 SW9       29.97F HX  80
$$

ILZ064>066-069>071-074>076-080>082-084>086-088>090-092>094-291900-
SOUTH-CENTRAL ILLINOIS

CITY           SKY/WX    TMP DP  RH WIND       PRES   REMARKS
CARBONDALE     SUNNY     83  53  35 SW10      29.96F HX  82
6HR MIN TEMP:  62; 6HR MAX TEMP:  83;

CAIRO*         SUNNY     81  58  44 SW9       29.99F HX  81
EFFINGHAM*     SUNNY     81  54  39 SW6       29.94F HX  80
MARION         MOSUNNY   82  59  44 SW9       29.98F HX  82
MT. VERNON       N/A     81  50  33 W9        29.95F HX  80
CENTRALIA*     SUNNY     82  47  29 W9        29.94F HX  80
SALEM*         SUNNY     83  45  26 W9        29.94F HX  81
METROPOLIS*    SUNNY     83  57  40 W8        29.99F HX  82
$$

ILZ067-068-072-073-078-083-087-091-291900-
SOUTHEAST ILLINOIS

CITY           SKY/WX    TMP DP  RH WIND       PRES   REMARKS
LAWRENCEVILLE  MOSUNNY   84  51  31 SW20G26   29.93F HX  82
FLORA*         SUNNY     83  46  26 W10       29.94F HX  81
FAIRFIELD*     SUNNY     83  47  29 W7        29.94S HX  81
HARRISBURG*    MOSUNNY   81  57  43 SW12      29.96F HX  81
ROBINSON*      SUNNY     82  52  35 W12       29.93F HX  81
CARMI*         MOSUNNY   84  54  35 W13       29.95S HX  83
$$

ABBREVIATIONS USED IN REMARKS
   TC - TEMPERATURE IN CELSIUS
  WCI - WIND CHILL INDEX
   HX - HEAT INDEX
  VSB - VISIBILITY
$$





USA.gov is the U.S. government's official web portal to all federal, state and local government web resources and services.